datetime,max air temp
2016-12-28,40.24
2016-12-29,42.15
2016-12-30,43.87
2016-12-31,34.21
2017-01-01,34.9
2017-01-02,34.53
2017-01-03,30.84
2017-01-04,31.14
2017-01-05,9.67
2017-01-06,5.92
2017-01-07,42.27
2017-01-08,45.41
2017-01-09,42.16
2017-01-10,40.74
2017-01-11,39.94
2017-01-12,35.62
2017-01-13,33.05
2017-01-14,35.44
2017-01-15,35.56
2017-01-16,37.9
2017-01-17,44.92
2017-01-18,41.97
2017-01-19,45.66
2017-01-20,43.69
2017-01-21,44.43
2017-01-22,41.16
2017-01-23,36.73
2017-01-24,31.81
2017-01-25,34.03
2017-01-26,40.55
2017-01-27,38.88
2017-01-28,39.93
2017-01-29,42.52
2017-01-30,46.45
2017-01-31,47.44
2017-02-01,44.12
2017-02-02,48.06
2017-02-03,49.17
2017-02-04,50.15
2017-02-05,49.66
2017-02-06,46.03
2017-02-07,57.03
2017-02-08,55.31
2017-02-09,53.17
2017-02-10,48.18
2017-02-11,44.23
2017-02-12,49.4
2017-02-13,55.07
2017-02-14,62.95
2017-02-15,55.57
2017-02-16,50.57
2017-02-17,45.29
2017-02-18,45.04
2017-02-19,50.02
2017-02-20,51.87
2017-02-21,48.31
2017-02-22,37.16
2017-02-23,35.07
2017-02-24,35.81
2017-02-25,37.16
2017-02-26,40.12
2017-02-27,37.1
2017-02-28,41.04
2017-03-01,49.03
2017-03-02,56.3
2017-03-03,50.33
2017-03-04,49.54
2017-03-05,35.87
2017-03-06,40.86
2017-03-07,49.48
2017-03-08,56.11
2017-03-09,59.99
2017-03-10,61.22
2017-03-11,64.85
2017-03-12,64.67
2017-03-13,68.18
2017-03-14,73.29
2017-03-15,63.5
2017-03-16,62.64
2017-03-17,68.36
2017-03-18,59.19
2017-03-19,60.73
2017-03-20,56.85
2017-03-21,50.4
2017-03-22,48.0
2017-03-23,54.08
2017-03-24,52.62
2017-03-25,51.5
2017-03-26,52.19
2017-03-27,49.97
2017-03-28,54.51
2017-03-29,59.62
2017-03-30,48.06
2017-03-31,58.14
2017-04-01,68.12
2017-04-02,61.9
2017-04-03,57.03
2017-04-04,59.81
2017-04-05,62.33
2017-04-06,57.05
2017-04-07,49.11
2017-04-08,44.86
2017-04-09,50.02
2017-04-10,52.05
2017-04-11,54.45
2017-04-12,52.92
2017-04-13,49.65
2017-04-14,45.72
2017-04-15,57.65
2017-04-16,57.96
2017-04-17,59.07
2017-04-18,59.0
2017-04-19,58.27
2017-04-20,59.38
2017-04-21,64.92
2017-04-22,63.07
2017-04-23,60.73
2017-04-24,58.76
2017-04-25,50.83
2017-04-26,58.02
2017-04-27,51.74
2017-04-28,55.86
2017-04-29,65.78
2017-04-30,65.16
2017-05-01,72.18
2017-05-02,71.01
2017-05-03,79.51
2017-05-04,83.1
2017-05-05,69.84
2017-05-06,55.62
2017-05-07,63.5
2017-05-08,71.38
2017-05-09,75.14
2017-05-10,78.34
2017-05-11,63.01
2017-05-12,54.57
2017-05-13,54.51
2017-05-14,58.94
2017-05-15,63.07
2017-05-16,53.84
2017-05-17,59.13
2017-05-18,68.18
2017-05-19,74.27
2017-05-20,74.95
2017-05-21,76.86
2017-05-22,80.8
2017-05-23,85.0
2017-05-24,76.86
2017-05-25,72.67
2017-05-26,72.37
2017-05-27,77.35
2017-05-28,85.0
2017-05-29,84.5
2017-05-30,80.7
2017-05-31,64.18
2017-06-01,72.3
2017-06-02,77.04
2017-06-03,80.5
2017-06-04,71.5
2017-06-05,76.49
2017-06-06,83.9
2017-06-07,72.8
2017-06-08,65.9
2017-06-09,66.89
2017-06-10,57.71
2017-06-11,50.65
2017-06-12,57.22
2017-06-13,66.7
2017-06-14,72.43
2017-06-15,75.75
2017-06-16,74.4
2017-06-17,78.4
2017-06-18,86.7
2017-06-19,95.6
2017-06-20,87.1
2017-06-21,86.4
2017-06-22,86.4
2017-06-23,88.6
2017-06-24,91.4
2017-06-25,94.6
2017-06-26,86.0
2017-06-27,82.8
2017-06-28,80.3
2017-06-29,83.0
2017-06-30,88.4
2017-07-01,85.1
2017-07-02,88.9
2017-07-03,89.4
2017-07-04,86.8
2017-07-05,87.7
2017-07-06,89.7
2017-07-07,89.6
2017-07-08,93.5
2017-07-09,90.7
2017-07-10,86.0
2017-07-11,85.5
2017-07-12,87.2
2017-07-13,90.2
2017-07-14,90.9
2017-07-15,87.6
2017-07-16,84.3
2017-07-17,85.8
2017-07-18,85.0
2017-07-19,84.1
2017-07-20,83.0
2017-07-21,84.7
2017-07-22,91.5
2017-07-23,92.5
2017-07-24,88.9
2017-07-25,82.1
2017-07-26,84.6
2017-07-27,85.2
2017-07-28,92.2
2017-07-29,88.6
2017-07-30,90.9
2017-07-31,94.5
2017-08-01,94.4
2017-08-02,91.7
2017-08-03,97.1
2017-08-04,93.7
2017-08-05,80.4
2017-08-06,83.1
2017-08-07,83.6
2017-08-08,85.3
2017-08-09,84.1
2017-08-10,85.9
2017-08-11,85.0
2017-08-12,87.3
2017-08-13,83.4
2017-08-14,79.51
2017-08-15,82.0
2017-08-16,85.7
2017-08-17,88.6
2017-08-18,88.3
2017-08-19,83.6
2017-08-20,84.7
2017-08-21,87.5
2017-08-22,87.1
2017-08-23,83.3
2017-08-24,83.0
2017-08-25,83.0
2017-08-26,88.6
2017-08-27,90.4
2017-08-28,91.4
2017-08-29,92.7
2017-08-30,85.4
2017-08-31,83.9
2017-09-01,90.7
2017-09-02,93.6
2017-09-03,90.5
2017-09-04,91.6
2017-09-05,99.3
2017-09-06,84.1
2017-09-07,84.0
2017-09-08,79.01
2017-09-09,82.5
2017-09-10,82.4
2017-09-11,89.1
2017-09-12,76.31
2017-09-13,84.7
2017-09-14,72.24
2017-09-15,68.3
2017-09-16,72.37
2017-09-17,74.7
2017-09-18,61.48
2017-09-19,60.24
2017-09-20,61.84
2017-09-21,54.94
2017-09-22,56.54
2017-09-23,63.38
2017-09-24,66.21
2017-09-25,68.61
2017-09-26,75.87
2017-09-27,74.95
2017-09-28,76.49
2017-09-29,68.12
2017-09-30,65.96
2017-10-01,60.3
2017-10-02,53.1
2017-10-03,60.79
2017-10-04,63.19
2017-10-05,66.58
2017-10-06,76.98
2017-10-07,68.24
2017-10-08,58.33
2017-10-09,65.65
2017-10-10,65.65
2017-10-11,52.61
2017-10-12,55.62
2017-10-13,54.63
2017-10-14,58.39
2017-10-15,61.78
2017-10-16,74.4
2017-10-17,72.12
2017-10-18,72.8
2017-10-19,65.1
2017-10-20,49.67
2017-10-21,51.02
2017-10-22,65.16
2017-10-23,64.42
2017-10-24,73.35
2017-10-25,75.51
2017-10-26,72.67
2017-10-27,70.58
2017-10-28,74.15
2017-10-29,71.87
2017-10-30,58.57
2017-10-31,58.76
2017-11-01,65.04
2017-11-02,59.2
2017-11-03,47.33
2017-11-04,41.18
2017-11-05,45.73
2017-11-06,43.21
2017-11-07,48.07
2017-11-08,52.13
2017-11-09,47.14
2017-11-10,47.95
2017-11-11,51.87
2017-11-12,52.74
2017-11-13,53.65
2017-11-14,49.53
2017-11-15,47.21
2017-11-16,43.95
2017-11-17,41.97
2017-11-18,44.49
2017-11-19,45.3
2017-11-20,54.65
2017-11-21,60.67
2017-11-22,69.59
2017-11-23,67.44
2017-11-24,50.16
2017-11-25,61.54
2017-11-26,54.47
2017-11-27,46.53
2017-11-28,36.5
2017-11-29,40.56
2017-11-30,35.33
2017-12-01,39.82
2017-12-02,46.91
2017-12-03,37.3
2017-12-04,36.5
2017-12-05,39.33
2017-12-06,44.62
2017-12-07,46.22
2017-12-08,47.39
2017-12-09,47.01
2017-12-10,47.44
2017-12-11,44.06
2017-12-12,44.2
2017-12-13,48.68
2017-12-14,46.96
2017-12-15,41.55
2017-12-16,40.87
2017-12-17,40.87
2017-12-18,45.17
2017-12-19,53.19
2017-12-20,32.87
2017-12-21,30.34
2017-12-22,31.94
2017-12-23,41.07
2017-12-24,36.62
2017-12-25,46.46
2017-12-26,30.96
2017-12-27,47.08
2017-12-28,42.66
2017-12-29,45.72
2017-12-30,48.31
2017-12-31,45.85
2018-01-01,48.68
2018-01-02,48.43
2018-01-03,49.06
2018-01-04,54.15
2018-01-05,55.07
2018-01-06,47.08
2018-01-07,42.16
2018-01-08,43.58
2018-01-09,50.34
2018-01-10,39.51
2018-01-11,52.18
2018-01-12,47.13
2018-01-13,52.6
2018-01-14,56.93
2018-01-15,55.69
2018-01-16,50.22
2018-01-17,59.26
2018-01-18,47.45
2018-01-19,39.45
2018-01-20,39.08
2018-01-21,40.25
2018-01-22,42.95
2018-01-23,47.94
2018-01-24,45.73
2018-01-25,42.47
2018-01-26,43.57
2018-01-27,44.74
2018-01-28,53.52
2018-01-29,53.12
2018-01-30,56.66
2018-01-31,47.21
2018-02-01,57.34
2018-02-02,60.54
2018-02-03,62.82
2018-02-04,61.47
2018-02-05,59.19
2018-02-06,55.43
2018-02-07,61.41
2018-02-08,64.61
2018-02-09,62.14
2018-02-10,45.54
2018-02-11,43.33
2018-02-12,37.73
2018-02-13,49.47
2018-02-14,46.04
2018-02-15,42.51
2018-02-16,50.52
2018-02-17,59.38
2018-02-18,39.76
2018-02-19,33.12
2018-02-20,33.54
2018-02-21,38.9
2018-02-22,36.56
2018-02-23,34.52
2018-02-24,38.34
2018-02-25,46.65
2018-02-26,34.53
2018-02-27,38.52
2018-02-28,39.7
2018-03-01,40.68
2018-03-02,35.88
2018-03-03,40.8
2018-03-04,38.22
2018-03-05,41.53
2018-03-06,51.25
2018-03-07,61.28
2018-03-08,54.45
2018-03-09,46.4
2018-03-10,53.96
2018-03-11,59.25
2018-03-12,64.3
2018-03-13,53.67
2018-03-14,43.02
2018-03-15,43.89
2018-03-16,37.48
2018-03-17,45.36
2018-03-18,48.23
2018-03-19,54.51
2018-03-20,47.63
2018-03-21,57.17
2018-03-22,44.5
2018-03-23,45.72
2018-03-24,39.75
2018-03-25,41.35
2018-03-26,48.6
2018-03-27,61.34
2018-03-28,65.04
2018-03-29,65.16
2018-03-30,69.23
2018-03-31,66.89
2018-04-01,59.93
2018-04-02,50.82
2018-04-03,63.68
2018-04-04,61.96
2018-04-05,54.7
2018-04-06,52.87
2018-04-07,54.39
2018-04-08,56.42
2018-04-09,73.41
2018-04-10,62.02
2018-04-11,55.74
2018-04-12,47.15
2018-04-13,55.74
2018-04-14,66.02
2018-04-15,51.46
2018-04-16,40.93
2018-04-17,49.03
2018-04-18,48.26
2018-04-19,56.23
2018-04-20,65.22
2018-04-21,68.42
2018-04-22,65.78
2018-04-23,68.73
2018-04-24,74.77
2018-04-25,80.7
2018-04-26,85.9
2018-04-27,62.02
2018-04-28,47.89
2018-04-29,53.23
2018-04-30,53.41
2018-05-01,60.17
2018-05-02,66.21
2018-05-03,76.06
2018-05-04,77.41
2018-05-05,75.01
2018-05-06,76.18
2018-05-07,75.94
2018-05-08,83.8
2018-05-09,70.64
2018-05-10,65.65
2018-05-11,63.19
2018-05-12,69.35
2018-05-13,75.01
2018-05-14,76.06
2018-05-15,77.91
2018-05-16,67.56
2018-05-17,71.44
2018-05-18,72.67
2018-05-19,74.15
2018-05-20,68.98
2018-05-21,74.03
2018-05-22,79.14
2018-05-23,73.9
2018-05-24,77.23
2018-05-25,59.68
2018-05-26,63.99
2018-05-27,75.75
2018-05-28,78.52
2018-05-29,81.5
2018-05-30,72.67
2018-05-31,58.58
2018-06-01,70.64
2018-06-02,82.4
2018-06-03,85.2
2018-06-04,72.98
2018-06-05,73.97
2018-06-06,78.03
2018-06-07,78.89
2018-06-08,78.34
2018-06-09,53.73
2018-06-10,65.47
2018-06-11,70.64
2018-06-12,83.1
2018-06-13,81.0
2018-06-14,76.61
2018-06-15,75.01
2018-06-16,71.2
2018-06-17,67.38
2018-06-18,73.6
2018-06-19,79.45
2018-06-20,85.9
2018-06-21,83.1
2018-06-22,81.2
2018-06-23,81.3
2018-06-24,88.6
2018-06-25,81.2
2018-06-26,84.3
2018-06-27,85.3
2018-06-28,75.2
2018-06-29,76.92
2018-06-30,85.3
2018-07-01,85.8
2018-07-02,80.2
2018-07-03,75.01
2018-07-04,81.0
2018-07-05,79.45
2018-07-06,77.54
2018-07-07,82.0
2018-07-08,85.1
2018-07-09,85.9
2018-07-10,81.9
2018-07-11,88.5
2018-07-12,91.9
2018-07-13,91.0
2018-07-14,93.5
2018-07-15,82.5
2018-07-16,89.7
2018-07-17,91.7
2018-07-18,91.4
2018-07-19,90.3
2018-07-20,88.6
2018-07-21,88.1
2018-07-22,88.9
2018-07-23,89.3
2018-07-24,87.8
2018-07-25,90.4
2018-07-26,92.8
2018-07-27,90.7
2018-07-28,87.8
2018-07-29,87.7
2018-07-30,87.5
2018-07-31,88.4
2018-08-01,87.2
2018-08-02,86.4
2018-08-03,83.0
2018-08-04,79.88
2018-08-05,81.4
2018-08-06,82.8
2018-08-07,88.4
2018-08-08,95.8
2018-08-09,92.2
2018-08-10,91.8
2018-08-11,83.3
2018-08-12,82.5
2018-08-13,86.6
2018-08-14,87.6
2018-08-15,88.3
2018-08-16,88.2
2018-08-17,83.6
2018-08-18,84.4
2018-08-19,87.3
2018-08-20,82.0
2018-08-21,78.77
2018-08-22,82.2
2018-08-23,82.3
2018-08-24,78.77
2018-08-25,81.5
2018-08-26,79.57
2018-08-27,75.88
2018-08-28,76.74
2018-08-29,85.0
2018-08-30,79.82
2018-08-31,76.61
2018-09-01,80.1
2018-09-02,82.2
2018-09-03,83.5
2018-09-04,84.4
2018-09-05,87.0
2018-09-06,87.2
2018-09-07,79.08
2018-09-08,77.41
2018-09-09,78.96
2018-09-10,79.64
2018-09-11,70.4
2018-09-12,65.1
2018-09-13,66.27
2018-09-14,71.38
2018-09-15,69.53
2018-09-16,68.8
2018-09-17,73.35
2018-09-18,73.54
2018-09-19,70.03
2018-09-20,74.03
2018-09-21,81.1
2018-09-22,75.94
2018-09-23,68.73
2018-09-24,72.3
2018-09-25,75.75
2018-09-26,81.2
2018-09-27,86.9
2018-09-28,83.9
2018-09-29,69.35
2018-09-30,65.65
2018-10-01,60.5
2018-10-02,69.16
2018-10-03,69.84
2018-10-04,58.82
2018-10-05,55.02
2018-10-06,60.98
2018-10-07,63.19
2018-10-08,65.29
2018-10-09,61.28
2018-10-10,56.67
2018-10-11,61.16
2018-10-12,68.79
2018-10-13,66.89
2018-10-14,57.04
2018-10-15,66.02
2018-10-16,69.1
2018-10-17,69.1
2018-10-18,70.95
2018-10-19,72.8
2018-10-20,75.81
2018-10-21,70.09
2018-10-22,69.41
2018-10-23,65.9
2018-10-24,62.83
2018-10-25,67.69
2018-10-26,71.93
2018-10-27,70.64
2018-10-28,59.5
2018-10-29,54.28
2018-10-30,52.37
2018-10-31,59.81
2018-11-01,64.3
2018-11-02,62.84
2018-11-03,60.05
2018-11-04,57.07
2018-11-05,51.74
2018-11-06,49.18
2018-11-07,48.38
2018-11-08,52.43
2018-11-09,51.31
2018-11-10,54.09
2018-11-11,50.16
2018-11-12,55.69
2018-11-13,53.19
2018-11-14,58.02
2018-11-15,57.28
2018-11-16,58.2
2018-11-17,55.56
2018-11-18,54.72
2018-11-19,52.81
2018-11-20,53.24
2018-11-21,53.67
2018-11-22,47.03
2018-11-23,50.29
2018-11-24,47.02
2018-11-25,50.28
2018-11-26,50.1
2018-11-27,51.83
2018-11-28,47.21
2018-11-29,47.46
2018-11-30,43.89
2018-12-01,38.47
2018-12-02,38.34
2018-12-03,39.7
2018-12-04,40.93
2018-12-05,42.04
2018-12-06,38.47
2018-12-07,39.89
2018-12-08,48.25
2018-12-09,46.29
2018-12-10,41.67
2018-12-11,42.74
2018-12-12,41.67
2018-12-13,45.0
2018-12-14,54.34
2018-12-15,44.81
2018-12-16,47.33
2018-12-17,47.34
2018-12-18,49.43
2018-12-19,48.07
2018-12-20,50.04
2018-12-21,40.01
2018-12-22,31.72
2018-12-23,37.67
2018-12-24,39.08
2018-12-25,42.1
2018-12-26,34.0
2018-12-27,38.65
2018-12-28,36.74
2018-12-29,40.44
2018-12-30,45.55
2018-12-31,34.9
2019-01-01,36.43
2019-01-02,42.22
2019-01-03,41.67
2019-01-04,52.73
2019-01-05,50.35
2019-01-06,37.48
2019-01-07,37.11
2019-01-08,54.03
2019-01-09,48.2
2019-01-10,51.02
2019-01-11,48.38
2019-01-12,52.99
2019-01-13,46.84
2019-01-14,48.87
2019-01-15,48.32
2019-01-16,41.85
2019-01-17,46.47
2019-01-18,37.92
2019-01-19,47.64
2019-01-20,46.84
2019-01-21,42.29
2019-01-22,40.25
2019-01-23,49.61
2019-01-24,38.71
2019-01-25,32.06
2019-01-26,48.43
2019-01-27,55.93
2019-01-28,49.73
2019-01-29,53.29
2019-01-30,54.02
2019-01-31,54.7
2019-02-01,46.6
2019-02-02,48.5
2019-02-03,46.04
2019-02-04,36.45
2019-02-05,27.64
2019-02-06,32.06
2019-02-07,30.79
2019-02-08,31.46
2019-02-09,34.86
2019-02-10,31.69
2019-02-11,35.82
2019-02-12,38.9
2019-02-13,44.26
2019-02-14,48.75
2019-02-15,39.64
2019-02-16,38.9
2019-02-17,35.63
2019-02-18,35.63
2019-02-19,38.22
2019-02-20,38.34
2019-02-21,34.28
2019-02-22,38.95
2019-02-23,42.16
2019-02-24,47.52
2019-02-25,47.03
2019-02-26,40.94
2019-02-27,47.69
2019-02-28,42.96
2019-03-01,44.8
2019-03-02,41.85
2019-03-03,46.95
2019-03-04,47.95
2019-03-05,41.36
2019-03-06,48.31
2019-03-07,39.21
2019-03-08,39.08
2019-03-09,36.68
2019-03-10,43.86
2019-03-11,48.91
2019-03-12,42.29
2019-03-13,46.21
2019-03-14,51.43
2019-03-15,57.28
2019-03-16,61.53
2019-03-17,62.82
2019-03-18,67.07
2019-03-19,69.29
2019-03-20,60.11
2019-03-21,55.31
2019-03-22,48.32
2019-03-23,41.92
2019-03-24,53.28
2019-03-25,48.75
2019-03-26,48.99
2019-03-27,48.38
2019-03-28,47.52
2019-03-29,49.54
2019-03-30,57.71
2019-03-31,62.58
2019-04-01,51.75
2019-04-02,52.5
2019-04-03,57.77
2019-04-04,55.32
2019-04-05,55.39
2019-04-06,54.96
2019-04-07,64.48
2019-04-08,60.12
2019-04-09,47.77
2019-04-10,52.55
2019-04-11,46.35
2019-04-12,56.66
2019-04-13,64.67
2019-04-14,46.66
2019-04-15,47.52
2019-04-16,55.86
2019-04-17,67.99
2019-04-18,75.57
2019-04-19,75.63
2019-04-20,53.11
2019-04-21,62.82
2019-04-22,71.38
2019-04-23,75.38
2019-04-24,72.86
2019-04-25,78.96
2019-04-26,70.09
2019-04-27,70.09
2019-04-28,60.42
2019-04-29,61.34
2019-04-30,56.97
2019-05-01,64.61
2019-05-02,66.21
2019-05-03,71.75
2019-05-04,74.64
2019-05-05,76.37
2019-05-06,73.54
2019-05-07,74.52
2019-05-08,73.23
2019-05-09,73.41
2019-05-10,74.52
2019-05-11,80.6
2019-05-12,80.9
2019-05-13,72.18
2019-05-14,61.6
2019-05-15,54.9
2019-05-16,52.99
2019-05-17,59.37
2019-05-18,52.14
2019-05-19,56.85
2019-05-20,58.88
2019-05-21,51.21
2019-05-22,60.0
2019-05-23,64.79
2019-05-24,68.86
2019-05-25,61.65
2019-05-26,59.13
2019-05-27,62.08
2019-05-28,69.41
2019-05-29,72.49
2019-05-30,72.73
2019-05-31,76.12
2019-06-01,79.94
2019-06-02,80.6
2019-06-03,80.3
2019-06-04,79.94
2019-06-05,81.4
2019-06-06,62.59
2019-06-07,59.32
2019-06-08,66.27
2019-06-09,78.96
2019-06-10,84.2
2019-06-11,88.9
2019-06-12,88.3
2019-06-13,84.9
2019-06-14,84.8
2019-06-15,84.1
2019-06-16,84.8
2019-06-17,83.2
2019-06-18,83.8
2019-06-19,79.51
2019-06-20,67.13
2019-06-21,69.04
2019-06-22,75.89
2019-06-23,77.66
2019-06-24,74.71
2019-06-25,73.35
2019-06-26,70.21
2019-06-27,65.29
2019-06-28,71.07
2019-06-29,74.77
2019-06-30,77.54
2019-07-01,76.31
2019-07-02,72.98
2019-07-03,71.32
2019-07-04,76.68
2019-07-05,80.2
2019-07-06,78.77
2019-07-07,78.59
2019-07-08,77.73
2019-07-09,82.3
2019-07-10,82.2
2019-07-11,82.5
2019-07-12,85.3
2019-07-13,83.5
2019-07-14,80.7
2019-07-15,79.7
2019-07-16,79.21
2019-07-17,80.2
2019-07-18,81.1
2019-07-19,80.8
2019-07-20,83.0
2019-07-21,87.8
2019-07-22,87.7
2019-07-23,87.0
2019-07-24,83.0
2019-07-25,88.9
2019-07-26,89.2
2019-07-27,84.3
2019-07-28,87.7
2019-07-29,88.8
2019-07-30,86.7
2019-07-31,85.2
2019-08-01,87.8
2019-08-02,84.0
2019-08-03,87.1
2019-08-04,88.8
2019-08-05,88.2
2019-08-06,87.4
2019-08-07,90.1
2019-08-08,86.9
2019-08-09,79.71
2019-08-10,59.9
2019-08-11,72.68
2019-08-12,79.46
2019-08-13,84.9
2019-08-14,87.8
2019-08-15,85.3
2019-08-16,82.2
2019-08-17,84.9
2019-08-18,87.7
2019-08-19,84.8
2019-08-20,87.1
2019-08-21,76.8
2019-08-22,77.98
2019-08-23,86.4
2019-08-24,88.9
2019-08-25,86.7
2019-08-26,87.3
2019-08-27,92.4
2019-08-28,87.1
2019-08-29,87.2
2019-08-30,84.8
2019-08-31,86.2
2019-09-01,86.2
2019-09-02,86.6
2019-09-03,86.4
2019-09-04,89.1
2019-09-05,88.2
2019-09-06,83.3
2019-09-07,78.97
2019-09-08,70.09
2019-09-09,69.79
2019-09-10,67.08
2019-09-11,71.33
2019-09-12,79.96
2019-09-13,82.6
2019-09-14,85.9
2019-09-15,79.4
2019-09-16,59.7
2019-09-17,68.12
2019-09-18,57.19
2019-09-19,62.52
2019-09-20,64.73
2019-09-21,69.35
2019-09-22,67.39
2019-09-23,68.86
2019-09-24,77.98
2019-09-25,77.74
2019-09-26,82.8
2019-09-27,70.15
2019-09-28,52.88
2019-09-29,49.68
2019-09-30,49.8
2019-10-01,53.42
2019-10-02,62.46
2019-10-03,58.84
2019-10-04,55.88
2019-10-05,63.13
2019-10-06,72.18
2019-10-07,73.6
2019-10-08,68.49
2019-10-09,51.89
2019-10-10,59.76
2019-10-11,64.0
2019-10-12,66.52
2019-10-13,67.32
2019-10-14,67.99
2019-10-15,71.69
2019-10-16,69.05
2019-10-17,54.6
2019-10-18,56.01
2019-10-19,51.22
2019-10-20,55.64
2019-10-21,64.3
2019-10-22,66.58
2019-10-23,64.74
2019-10-24,67.07
2019-10-25,73.17
2019-10-26,56.26
2019-10-27,47.89
2019-10-28,56.63
2019-10-29,42.72
2019-10-30,53.12
2019-10-31,57.53
2019-11-01,62.77
2019-11-02,62.82
2019-11-03,64.67
2019-11-04,67.44
2019-11-05,59.64
2019-11-06,65.23
2019-11-07,60.37
2019-11-08,65.66
2019-11-09,64.98
2019-11-10,66.89
2019-11-11,61.17
2019-11-12,56.93
2019-11-13,61.48
2019-11-14,58.11
2019-11-15,59.19
2019-11-16,50.29
2019-11-17,59.81
2019-11-18,59.87
2019-11-19,51.28
2019-11-20,48.26
2019-11-21,48.26
2019-11-22,51.02
2019-11-23,51.15
2019-11-24,54.41
2019-11-25,42.1
2019-11-26,31.22
2019-11-27,35.52
2019-11-28,32.43
2019-11-29,33.6
2019-11-30,35.53
2019-12-01,39.08
2019-12-02,49.0
2019-12-03,47.34
2019-12-04,42.72
2019-12-05,44.07
2019-12-06,49.98
2019-12-07,45.0
2019-12-08,44.56
2019-12-09,31.53
2019-12-10,34.12
2019-12-11,43.95
2019-12-12,51.09
2019-12-13,42.41
2019-12-14,39.45
2019-12-15,38.84
2019-12-16,37.73
2019-12-17,35.29
2019-12-18,41.3
2019-12-19,51.15
2019-12-20,49.98
2019-12-21,51.95
2019-12-22,47.35
2019-12-23,39.45
2019-12-24,36.75
2019-12-25,34.43
2019-12-26,41.05
2019-12-27,40.56
2019-12-28,40.5
2019-12-29,42.16
2019-12-30,43.02
2019-12-31,46.91
2020-01-01,50.29
2020-01-02,48.13
2020-01-03,54.89
2020-01-04,43.89
2020-01-05,43.95
2020-01-06,47.34
2020-01-07,52.57
2020-01-08,43.64
2020-01-09,38.28
2020-01-10,46.47
2020-01-11,38.36
2020-01-12,40.44
2020-01-13,37.44
2020-01-14,36.21
2020-01-15,39.36
2020-01-16,37.07
2020-01-17,32.81
2020-01-18,40.53
2020-01-19,39.17
2020-01-20,44.69
2020-01-21,41.12
2020-01-22,43.7
2020-01-23,46.72
2020-01-24,48.94
2020-01-25,46.04
2020-01-26,50.23
2020-01-27,49.43
2020-01-28,50.66
2020-01-29,44.63
2020-01-30,49.73
2020-01-31,54.08
2020-02-01,58.77
2020-02-02,39.58
2020-02-03,37.54
2020-02-04,33.73
2020-02-05,49.92
2020-02-06,56.18
2020-02-07,59.99
2020-02-08,43.02
2020-02-09,45.73
2020-02-10,53.71
2020-02-11,55.81
2020-02-12,51.51
2020-02-13,57.35
2020-02-14,50.52
2020-02-15,46.29
2020-02-16,49.18
2020-02-17,42.29
2020-02-18,46.6
2020-02-19,52.68
2020-02-20,56.06
2020-02-21,57.1
2020-02-22,59.68
2020-02-23,58.27
2020-02-24,52.99
2020-02-25,57.47
2020-02-26,62.58
2020-02-27,63.75
2020-02-28,65.54
2020-02-29,39.33
2020-03-01,45.61
2020-03-02,59.19
2020-03-03,62.76
2020-03-04,63.68
2020-03-05,68.06
2020-03-06,60.45
2020-03-07,43.76
2020-03-08,43.21
2020-03-09,51.28
2020-03-10,59.19
2020-03-11,64.05
2020-03-12,62.21
2020-03-13,59.81
2020-03-14,44.44
2020-03-15,38.78
2020-03-16,49.61
2020-03-17,44.56
2020-03-18,43.21
2020-03-19,48.37
2020-03-20,55.31
2020-03-21,58.94
2020-03-22,59.99
2020-03-23,56.44
2020-03-24,49.25
2020-03-25,43.64
2020-03-26,47.2
2020-03-27,49.61
2020-03-28,52.31
2020-03-29,53.43
2020-03-30,53.55
2020-03-31,58.15
2020-04-01,45.0
2020-04-02,49.17
2020-04-03,50.52
2020-04-04,46.97
2020-04-05,46.97
2020-04-06,52.42
2020-04-07,64.18
2020-04-08,70.46
2020-04-09,74.03
2020-04-10,71.63
2020-04-11,64.3
2020-04-12,61.72
2020-04-13,57.9
2020-04-14,66.89
2020-04-15,65.84
2020-04-16,60.55
2020-04-17,65.16
2020-04-18,67.38
2020-04-19,62.27
2020-04-20,65.84
2020-04-21,68.0
2020-04-22,63.45
2020-04-23,63.44
2020-04-24,67.13
2020-04-25,68.37
2020-04-26,72.67
2020-04-27,68.86
2020-04-28,76.5
2020-04-29,78.71
2020-04-30,65.47
2020-05-01,67.51
2020-05-02,66.09
2020-05-03,58.33
2020-05-04,69.78
2020-05-05,73.84
2020-05-06,62.52
2020-05-07,75.57
2020-05-08,80.3
2020-05-09,86.6
2020-05-10,78.54
2020-05-11,67.09
2020-05-12,59.4
2020-05-13,49.62
2020-05-14,57.43
2020-05-15,64.98
2020-05-16,64.93
2020-05-17,62.15
2020-05-18,53.67
2020-05-19,56.57
2020-05-20,59.51
2020-05-21,63.94
2020-05-22,57.4
2020-05-23,67.13
2020-05-24,75.76
2020-05-25,81.7
2020-05-26,80.9
2020-05-27,84.6
2020-05-28,88.7
2020-05-29,88.6
2020-05-30,73.2
2020-05-31,68.86
2020-06-01,71.88
2020-06-02,81.7
2020-06-03,83.0
2020-06-04,81.4
2020-06-05,76.01
2020-06-06,59.22
2020-06-07,52.51
2020-06-08,64.32
2020-06-09,75.7
2020-06-10,78.66
2020-06-11,79.83
2020-06-12,71.08
2020-06-13,58.95
2020-06-14,69.29
2020-06-15,61.42
2020-06-16,59.52
2020-06-17,71.39
2020-06-18,79.47
2020-06-19,83.7
2020-06-20,83.2
2020-06-21,81.3
2020-06-22,87.2
2020-06-23,94.2
2020-06-24,82.7
2020-06-25,88.4
2020-06-26,91.4
2020-06-27,80.1
2020-06-28,63.28
2020-06-29,71.7
2020-06-30,73.17
2020-07-01,74.34
2020-07-02,78.42
2020-07-03,80.9
2020-07-04,79.09
2020-07-05,80.6
2020-07-06,82.1
2020-07-07,74.47
2020-07-08,79.96
2020-07-09,82.1
2020-07-10,84.6
2020-07-11,89.4
2020-07-12,84.0
2020-07-13,84.0
2020-07-14,85.9
2020-07-15,88.9
2020-07-16,90.1
2020-07-17,89.1
2020-07-18,90.4
2020-07-19,90.9
2020-07-20,92.9
2020-07-21,93.2
2020-07-22,85.9
2020-07-23,83.5
2020-07-24,85.5
2020-07-25,85.6
2020-07-26,88.1
2020-07-27,82.9
2020-07-28,87.1
2020-07-29,92.0
2020-07-30,89.8
2020-07-31,90.7
2020-08-01,88.2
2020-08-02,86.7
2020-08-03,84.6
2020-08-04,88.5
2020-08-05,83.8
2020-08-06,78.42
2020-08-07,79.34
2020-08-08,86.6
2020-08-09,87.0
2020-08-10,88.1
2020-08-11,88.5
2020-08-12,84.1
2020-08-13,86.7
2020-08-14,89.6
2020-08-15,96.5
2020-08-16,88.7
2020-08-17,79.79
2020-08-18,90.8
2020-08-19,85.9
2020-08-20,84.2
2020-08-21,85.1
2020-08-22,85.5
2020-08-23,89.3
2020-08-24,84.9
2020-08-25,83.2
2020-08-26,82.2
2020-08-27,83.7
2020-08-28,87.9
2020-08-29,86.6
2020-08-30,79.96
2020-08-31,82.9
2020-09-01,87.0
2020-09-02,94.3
2020-09-03,95.4
2020-09-04,95.4
2020-09-05,89.5
2020-09-06,91.2
2020-09-07,93.3
2020-09-08,74.56
2020-09-09,85.6
2020-09-10,89.5
2020-09-11,82.4
2020-09-12,86.4
2020-09-13,86.5
2020-09-14,83.9
2020-09-15,84.9
2020-09-16,84.5
2020-09-17,81.9
2020-09-18,72.59
2020-09-19,69.61
2020-09-20,77.5
2020-09-21,77.37
2020-09-22,77.74
2020-09-23,79.22
2020-09-24,69.99
2020-09-25,74.11
2020-09-26,67.71
2020-09-27,76.88
2020-09-28,84.9
2020-09-29,88.2
2020-09-30,80.0
2020-10-01,85.3
2020-10-02,83.8
2020-10-03,82.3
2020-10-04,73.32
2020-10-05,79.59
2020-10-06,79.65
2020-10-07,77.62
2020-10-08,74.85
2020-10-09,76.51
2020-10-10,61.19
2020-10-11,62.41
2020-10-12,69.12
2020-10-13,73.92
2020-10-14,66.35
2020-10-15,67.15
2020-10-16,76.33
2020-10-17,75.46
2020-10-18,74.23
2020-10-19,72.01
2020-10-20,73.18
2020-10-21,64.82
2020-10-22,52.45
2020-10-23,61.3
2020-10-24,64.88
2020-10-25,45.73
2020-10-26,57.61
2020-10-27,67.2
2020-10-28,69.55
2020-10-29,71.08
2020-10-30,71.71
2020-10-31,65.48
2020-11-01,65.66
2020-11-02,69.12
2020-11-03,69.72
2020-11-04,69.85
2020-11-05,71.27
2020-11-06,57.75
2020-11-07,43.22
2020-11-08,37.26
2020-11-09,38.41
2020-11-10,45.67
2020-11-11,46.29
2020-11-12,44.56
2020-11-13,44.69
2020-11-14,42.62
2020-11-15,50.79
2020-11-16,54.97
2020-11-17,54.48
2020-11-18,48.01
2020-11-19,45.18
2020-11-20,43.15
2020-11-21,45.92
2020-11-22,39.72
2020-11-23,47.64
2020-11-24,44.32
2020-11-25,41.98
2020-11-26,42.9
2020-11-27,44.69
2020-11-28,44.2
2020-11-29,48.26
2020-11-30,47.21
2020-12-01,44.5
2020-12-02,47.77